Flag for Germany Weather past 2 weeks in Giessen, Hesse, Germany

Now
47 °F

Fog.


Feels Like: 47 °F
Forecast: 45 / 54 °F
Wind: 1 mph from Northeast

Location: Giessen

Current Time: Oct 24, 2014 at 10:46:14 PM

Latest Report: Oct 24, 2014 at 10:00 PM


Visibility: 4 mi

Pressure: 30.14 "Hg

Humidity: 94%

Dew point: 46 °F

Location of GiessenLocation

Historic Weather in Giessen — Graph

°F

Giessen temperature yesterday

Maximum temperature yesterday: 53 °F (at 5:00 PM)
Minimum temperature yesterday: 46 °F (at 2:00 AM)
Average temperature yesterday: 49 °F

Past Weeks' High & Low Weather Summary

 TemperatureHumidityPressure
High70 °F (Oct 19, 4:00 PM)100% (Oct 12, 5:00 AM)30.26 "Hg (Oct 12, 5:00 AM)
Low42 °F (Oct 22, 3:00 AM)61% (Oct 15, 4:00 PM)29.50 "Hg (Oct 21, 6:00 PM)
Average53 °F92%29.95 "Hg
* Reported Oct 9 9:00 PM — Oct 24 9:00 PM, Giessen, Weather by CustomWeather, © 2014

Note: Actual official high and low records may vary slightly from our data, if they occured in-between our weather recording intervals... More about our weather records

Advertising

Giessen weather history for previous 24 hours

 ConditionsComfort  
Time TempWeatherWind HumidityBarometerVisibility
9:00 PM
Oct 24
48 °FFog.2 mph93%30.14 "Hg4 mi
8:00 PM49 °FCool.1 mph89%30.13 "Hg5 mi
7:00 PM49 °FCool.2 mph87%30.13 "Hg6 mi
6:00 PM53 °FCool.5 mph76%30.12 "Hg8 mi
5:00 PM54 °FCool.3 mph71%30.14 "Hg10 mi
4:00 PM54 °FCool.3 mph68%30.14 "HgN/A
3:00 PM55 °FCool.5 mph70%30.16 "Hg9 mi
2:00 PM52 °FCool.2 mph82%30.19 "Hg5 mi
1:00 PM48 °FFog.1 mph90%30.22 "Hg3 mi
12:00 PM46 °FFog.1 mph97%30.23 "Hg3 mi
11:00 AM44 °FFog.2 mph99%30.24 "Hg2 mi
10:00 AM43 °FQuite cool.1 mph100%30.24 "Hg1 mi
9:00 AM43 °FDuststorm.2 mph100%30.24 "Hg1 mi
8:00 AM44 °FQuite cool.3 mph100%30.24 "Hg1 mi
7:00 AM44 °FDuststorm.2 mph100%30.24 "Hg0 mi
6:00 AM44 °FDuststorm.2 mph100%30.23 "Hg0 mi
5:00 AM44 °FDuststorm.2 mph99%30.24 "Hg1 mi
4:00 AM45 °FFog.2 mph98%30.25 "Hg2 mi
3:00 AM46 °FFog.1 mph97%30.25 "Hg3 mi
2:00 AM47 °FFog.1 mph96%30.25 "Hg4 mi
1:00 AM48 °FCool.1 mph94%30.25 "Hg6 mi
12:00 AM49 °FFog.1 mph94%30.24 "Hg4 mi
11:00 PM
Oct 23
49 °FCool.2 mph93%30.25 "HgN/A
10:00 PM49 °FCool.1 mph91%30.25 "Hg6 mi
Weather by CustomWeather, © 2014

See weather overviewHow to use our weather pages